ORBVIEW 2 (SEASTAR)

Last updated on Fri Jul 11 2025 00:02:13 GMT+0000 (Coordinated Universal Time)

1 24883U 97037A 25191.39233232 .00000149 00000+0 68180-4 0 9996 2 24883 98.8287 344.7249 0003179 67.3375 292.8145 14.35266402473719
UTC large
Height (km)
Speed (km/s)
/
Latitude / Longitude
Inclination (degrees)
Orbital Period (minutes)
Azimuth
Elevation
Range (km)
Doppler Factor

Next 0 passes for location: London (51.5072 / 0.1276)

Sorry there are no passes over London.